Погода в Кутаиси

Погода в Кутаиси : погода сейчас, прогноз погоды и архив. Всё, что Вы хотите узнать о погоде в Кутаиси!

Поиск расширенной информации на нашем сайте:

Другие новости

Новости СМИ2

Главная страница сайта

Новости сайта

03.07.2017

Напоминаем, что на нашем специализированном сайте Метеоцентр.Азия вы можете получить высокодетализированные автоматические прогнозы погоды по пунктам России, СНГ и мира в авиационном формате (включающие направление и скорость ветра, видимость, явления погоды, количество и форму облачности, нижнюю и верхнюю границу облачности).

Рекомендуем: Киноманы могут смотреть ужасы онлайн бесплатно в хорошем качестве

Погода в Кутаиси - сегодня

Время (UTC), дата Ветер
(°,м/с) 
Видим.   Явления Облачность Т
(°С)
Тd
(°С)
f(%) Тe
(°С)
Pmin
(гПа)
dP
(гПа)
Po
(мм)
O2
(г/м3)
Тmin Tmax R s Состояние
почвы
03 23.07.17 тихо ()   4000 м  слаб. дождь{ливн. осадки}  10/8 300 м средняя 
[Frnb|As op]
+21.2 +20.9 98 +42  1012.9  -0.1  750  275         
09 23.07.17 240 (ЮЗ) 10 км  слаб. ливневой дождь{гроза}  10/8 600 м кучево-дожд., средняя 
[Cb cap|As op]
+21.6 +20.8 95 +42  1013.8  0.8  750  275           
12 23.07.17 240 (ЮЗ) 10 км  в посл. час ливневой дождь{гроза}  10/8 600 м средняя 
[Sc|As op]
+21.8 +20 90 +40  1014.2  0.4  751  275           
21 23.07.17 тихо ()   10 км    9/6 1000 м средняя 
[Sc|Ac trans]
+21.4 +20.5 95 +41  1012.8  -0.8  750  275           
00 24.07.17 тихо ()   10 км    9/6 1000 м средняя 
[Sc|Ac trans]
+21.4 +20.5 95 +41  1011.8  -1  749  275           
03 24.07.17 090 (В) 20000 м    9/6 1000 м средняя 
[Sc|Ac trans]
+21.6 +20.7 95 +42  1011.4  -0.4  749  274           
06 24.07.17 120 (ЮВ) 20000 м    6/4 1000 м средняя 
[Sc|Ac trans]
+24.2 +20.6 80 +44  1010  -1.2  748  272  +21.2         
09 24.07.17 270 (З) 20000 м    8/4 1500 м средняя 
[Sc|Ac trans]
+27.2 +20.6 67 +47  1009.1  -0.9  747  269           
12 24.07.17 270 (З) 20000 м    8/3 1500 м средняя 
[Sc|Ac trans]
+27.8 +22 71 +51  1008.4  -0.2  747  268           
18 24.07.17 270 (З) 10 км    10/6 1000 м средняя 
[Sc|As op]
+23.4 +21.6 90 +46  1009.8  0.7  748  272    +28       
21 24.07.17 тихо ()   10 км    9/6 1000 м средняя 
[Sc|Ac trans]
+22.8 +21 90 +44  1009  -0.9  747  272           
00 25.07.17 тихо ()   10 км    9/6 1000 м средняя 
[Sc|Ac trans]
+22.6 +21.2 92 +44  1008.6  -5.9  747  272           
03 25.07.17 тихо ()   20000 м    10/6 1000 м средняя 
[Sc|Ac trans]
+22 +21.4 96 +44  1008.7  0.1  747  273           
06 25.07.17 тихо ()   20000 м    8/3 1500 м средняя 
[Sc|Ac trans]
+25.2 +21.9 82 +49  1007.5  -1.2  746  269  +21.8         
09 25.07.17 240 (ЮЗ) 20000 м    6/3 1500 м средняя 
[Sc|Ac trans]
+28 +21.7 69 +51  1006.6  -0.8  745  267           
12 25.07.17 270 (З) 20000 м    6/3 1500 м средняя 
[Sc|Ac trans]
+29 +21.9 66 +53  1005.6  -0.8  745  266           
18 25.07.17 270 (З) 10 км    8/4 1000 м средняя 
[Sc|Ac trans]
+24.4 +21.9 86 +48  1007.8  1.8  746  270    +29.4       
21 25.07.17 180 (Ю) 10 км    10/5 1000 м средняя 
[Sc|As op]
+23.7 +22.8 95 +50  1008  0.2  746  271           
00 26.07.17 090 (В) 10 км    8/4 1000 м средняя 
[Sc|Ac trans]
+23.2 +22.2 94 +47  1006.6  -1.4  745  271           
03 26.07.17 090 (В) 20000 м    ясно 
+22.6 +21.4 93 +45  1006.5  -0.2  745  272           
06 26.07.17 090 (В) 20000 м    ясно 
+27.2 +22.2 74 +52  1006.1  -0.2  745  267  +22.4         
09 26.07.17 270 (З) 20000 м    ясно 
+30.6 +22.7 63 +56  1005  -1  744  264           
12 26.07.17 270 (З) 20000 м    3/3 1500 м средняя 
[Sc|Ac trans]
+31.8 +23.1 60 +59  1004.6  -0.3  744  262           
18 26.07.17 090 (В) 10 км    3/0 средняя 
[Ac trans]
+26 +23.4 86 +54  1006.1  1.2  745  268    +32.2       
21 26.07.17 090 (В) 10 км    3/0 средняя 
[Ac trans]
+24.4 +22.8 91 +50  1006.7  0.6  745  270           
Время (UTC), дата Ветер
(°,м/с) 
Видим.   Явления Облачность Т
(°С)
Тd
(°С)
f(%) Тe
(°С)
Pmin
(гПа)
dP
(гПа)
Po
(мм)
O2
(г/м3)
Тmin Tmax R s Состояние
почвы

Для получения пояснительной информации подведите курсор к названию столбца.

ПОГОДА в Кутаиси - архив

Всё, что Вы хотите узнать о погоде в Кутаиси - удобно и подробно!

Выберите нужную дату (начиная с 1 января 2015* года) и нажмите кнопку "Найти".
Будут отображены архивные сводки погоды по пункту Кутаиси, начиная с указанной даты.


Отображать данные в формате CSV (для использования в таблицах Excel)


Внимание! Наш архив погоды предназначен исключительно для личного некоммерческого использования в познавательных целях. Если Вам необходимы официальные справки о состоянии погоды (для производственных, юридических, коммерческих и т.п. целей), обращайтесь в органы Росгидромета.

*Примечание: данная дата относится к архиву по метеостанциям СССР (Россия, СНГ, Балтия).
Архив по метеостанциям Зарубежной Европы и Азии (кроме Китая) хранится 10 дней, по другим регионам земного шара (Китай, Африка, Америка, Австралия, Океания) - 1 день.

Кутаиси - район местоположения метеостанции


Название, широта, долгота, высота метеостанции:
Кутаиси 42.3°ш. 42.6°д. 116 м над ур. моря [Грузия]

Дополнительная информация

В oтличие oт бoльшинства пoгoдных сайтoв мы публикуем пoдрoбную метеoинфoрмацию в детальнoм прoфессиoнальнoм фoрмате.

Характеристики температуры и влажнoсти вoздуха измеряются на высoте 2 м в тени вдали oт зданий и деревьев.
Скoрoсть ветра измеряется на высoте 10 м (на урoвне рoста челoвека скoрoсть ветра ниже в 1.5-2 раза). Если метеoстанция нахoдится в гoрoде или в лесу, тo скoрoсть ветра занижена на 2-4 м/с пo сравнению с oткрытым местoм. Скoрoсть ветра над акватoриями крупных рек и oзёр, а также на вершинах хoлмoв на 2-5 м/с выше, чем в oбычных услoвиях.
Атмoсфернoе давление в разных тoчках местнoсти мoжет значительнo oтличаться oт давления на метеoстанции, в зависимoсти oт услoвий рельефа (при пoдъёме на 10 м давление пoнижается примернo на 1 мм рт.ст.).